DW8052 Weather Reports


time (UTC)temp
F
wind
direction
speed
knots
gust
knots
rain 1hr
in
rain 24hr
in
rain mn
in
humidity
%
barometer
mb
20260904032708 68 74 10.4 12.2 0.00 0.00 0.00 54 1018.2
20260904032208 68 49 2.6 8.7 0.00 0.00 0.00 48 1018.3
20260904031708 69 71 8.7 12.2 0.00 0.00 0.00 51 1018.2
20260904031208 70 81 6.1 10.4 0.00 0.00 0.00 50 1018.1
20260904030708 70 87 3.5 5.2 0.00 0.00 0.00 50 1018.2
20260904025708 68 89 4.3 7.8 0.00 0.00 0.00 54 1018.7
20260904025208 68 106 6.1 8.7 0.00 0.00 0.00 53 1018.5
20260904024709 69 111 7.0 10.4 0.00 0.00 0.00 52 1018.6
20260904024208 69 115 7.8 8.7 0.00 0.00 0.00 51 1018.8
20260904023708 69 121 5.2 7.8 0.00 0.00 0.00 49 1018.9
20260904023208 69 85 3.5 6.1 0.00 0.00 0.00 52 1019.0
20260904022708 69 21 2.6 6.1 0.00 0.00 0.00 53 1018.9
20260904022209 69 95 6.1 8.7 0.00 0.00 0.00 50 1019.1
20260904021208 70 100 4.3 6.1 0.00 0.00 0.00 50 1019.4
20260904020708 70 92 3.5 6.1 0.00 0.00 0.00 50 1019.4
20260904020208 70 80 5.2 7.0 0.00 0.00 0.00 50 1019.4
20260904015708 70 94 4.3 7.0 0.00 0.00 0.00 49 1019.5
20260904015208 70 72 4.3 7.0 0.00 0.00 0.00 48 1019.8
20260904014709 71 101 5.2 7.0 0.00 0.00 0.00 45 1019.9
20260904014208 71 125 6.1 7.0 0.00 0.00 0.00 44 1020.1
20260904013708 71 104 2.6 5.2 0.00 0.00 0.00 42 1020.0
20260904013208 71 95 3.5 6.1 0.00 0.00 0.00 41 1020.2
20260904012208 71 117 4.3 6.1 0.00 0.00 0.00 44 1020.6
20260904011208 72 106 4.3 6.1 0.00 0.00 0.00 46 1020.5
20260904010708 73 105 2.6 4.3 0.00 0.00 0.00 43 1020.6
20260904010208 73 92 0.9 2.6 0.00 0.00 0.00 41 1020.7
20260904005708 73 113 3.5 7.0 0.00 0.00 0.00 41 1020.9
20260904005208 74 108 2.6 4.3 0.00 0.00 0.00 42 1020.9
20260904004708 73 98 1.7 2.6 0.00 0.00 0.00 38 1020.7
20260904004207 73 295 1.7 2.6 0.00 0.00 0.00 36 1020.7
20260904003707 72 246 1.7 2.6 0.00 0.00 0.00 37 1020.8
20260904003207 71 218 1.7 10.4 0.00 0.00 0.00 38 1020.8
20260904002208 70 273 2.6 6.1 0.00 0.00 0.00 38 1020.9
20260904001708 71 277 5.2 8.7 0.00 0.00 0.00 34 1020.8
20260904000708 71 255 1.7 4.3 0.00 0.00 0.00 37 1021.0
20260904000207 71 242 3.5 6.1 0.00 0.00 0.00 39 1021.1
20260903235208 69 245 6.1 8.7 0.00 0.00 0.00 40 1021.1
20260903234208 68 275 4.3 7.0 0.00 0.00 0.00 44 1021.2
20260903233708 67 265 6.1 10.4 0.00 0.00 0.00 45 1021.3
20260903233207 67 260 8.7 10.4 0.00 0.00 0.00 45 1021.5
20260903232708 67 276 7.0 11.3 0.00 0.00 0.00 45 1021.6
20260903232208 67 262 6.1 10.4 0.00 0.00 0.00 46 1021.6
20260903231707 66 293 5.2 10.4 0.00 0.00 0.00 48 1021.6
20260903231207 65 261 10.4 13.0 0.00 0.00 0.00 47 1021.6
20260903230707 65 269 10.4 14.8 0.00 0.00 0.00 48 1021.8
20260903225708 65 268 11.3 13.9 0.00 0.00 0.00 48 1021.7
20260903225208 65 270 8.7 12.2 0.00 0.00 0.00 49 1021.7
20260903224707 64 270 5.2 11.3 0.00 0.00 0.00 50 1021.9
20260903224208 64 278 8.7 13.0 0.00 0.00 0.00 51 1022.0
20260903223708 64 274 9.6 12.2 0.00 0.00 0.00 51 1021.6
20260903222707 63 268 11.3 13.0 0.00 0.00 0.00 51 1021.6
20260903222208 63 263 8.7 13.0 0.00 0.00 0.00 52 1021.8
20260903221708 63 252 8.7 11.3 0.00 0.00 0.00 53 1021.7
20260903221208 62 267 7.8 13.9 0.00 0.00 0.00 54 1021.9
20260903220707 62 269 10.4 13.9 0.00 0.00 0.00 53 1021.7
20260903220208 62 267 7.8 15.6 0.00 0.00 0.00 54 1021.8
20260903215707 62 261 8.7 13.0 0.00 0.00 0.00 54 1021.8
20260903215208 61 264 7.0 13.9 0.00 0.00 0.00 56 1021.6
20260903214707 61 279 5.2 11.3 0.00 0.00 0.00 56 1021.9
20260903214208 61 283 5.2 15.6 0.00 0.00 0.00 56 1021.6
20260903213208 61 273 7.8 10.4 0.00 0.00 0.00 56 1021.6
20260903212707 60 274 6.1 13.9 0.00 0.00 0.00 57 1021.4
20260903211707 60 269 7.8 11.3 0.00 0.00 0.00 57 1021.3
20260903210707 59 269 5.2 10.4 0.00 0.00 0.00 59 1021.3
20260903205208 58 270 7.8 11.3 0.00 0.00 0.00 60 1021.1
20260903204707 58 266 10.4 13.9 0.00 0.00 0.00 60 1021.0
20260903204208 58 273 10.4 13.0 0.00 0.00 0.00 60 1021.1
20260903203707 58 258 7.0 13.0 0.00 0.00 0.00 61 1021.1
20260903203207 57 259 10.4 13.0 0.00 0.00 0.00 61 1020.9
20260903202707 57 254 11.3 15.6 0.00 0.00 0.00 61 1020.8
20260903202208 57 257 10.4 15.6 0.00 0.00 0.00 61 1020.8
20260903201707 57 256 12.2 15.6 0.00 0.00 0.00 61 1020.7
20260903201208 57 253 12.2 15.6 0.00 0.00 0.00 61 1020.8
20260903200707 57 246 11.3 14.8 0.00 0.00 0.00 61 1020.9
20260903200208 57 254 12.2 14.8 0.00 0.00 0.00 61 1020.7
20260903195707 57 260 11.3 17.4 0.00 0.00 0.00 61 1020.5
20260903195207 57 263 9.6 13.0 0.00 0.00 0.00 61 1020.6
20260903194707 57 251 10.4 14.8 0.00 0.00 0.00 60 1020.7
20260903194208 57 252 11.3 14.8 0.00 0.00 0.00 60 1020.5
20260903193207 57 254 11.3 15.6 0.00 0.00 0.00 60 1020.2
20260903192707 57 251 9.6 14.8 0.00 0.00 0.00 60 1020.1
20260903192208 57 260 12.2 17.4 0.00 0.00 0.00 60 1019.9
20260903191708 57 255 10.4 15.6 0.00 0.00 0.00 60 1020.0
20260903191207 58 259 10.4 14.8 0.00 0.00 0.00 60 1019.9
20260903190707 58 264 9.6 13.9 0.00 0.00 0.00 60 1019.9
20260903190207 58 261 9.6 14.8 0.00 0.00 0.00 60 1020.0
20260903185207 58 261 12.2 17.4 0.00 0.00 0.00 60 1020.0
20260903184207 58 260 12.2 17.4 0.00 0.00 0.00 60 1019.9
20260903183708 58 263 10.4 15.6 0.00 0.00 0.00 60 1019.8
20260903183207 58 262 12.2 17.4 0.00 0.00 0.00 60 1019.7
20260903182707 58 263 13.0 18.2 0.00 0.00 0.00 59 1019.6
20260903182207 58 261 12.2 17.4 0.00 0.00 0.00 59 1019.6
20260903181707 58 268 13.9 20.9 0.00 0.00 0.00 59 1019.5
20260903181207 58 262 12.2 19.1 0.00 0.00 0.00 59 1019.2
20260903180707 58 254 13.9 18.2 0.00 0.00 0.00 59 1019.3
20260903180208 58 260 10.4 18.2 0.00 0.00 0.00 59 1019.3
20260903175707 58 265 11.3 19.1 0.00 0.00 0.00 58 1019.3
20260903174707 58 264 11.3 17.4 0.00 0.00 0.00 58 1019.2
20260903174207 58 263 13.0 19.1 0.00 0.00 0.00 58 1019.2
20260903173206 58 271 13.0 17.4 0.00 0.00 0.00 58 1019.2
20260903172707 58 266 13.9 18.2 0.00 0.00 0.00 58 1019.4
20260903172207 58 261 13.0 19.1 0.00 0.00 0.00 57 1019.2
20260903171207 58 264 13.9 19.1 0.00 0.00 0.00 57 1019.0
20260903170707 58 271 12.2 17.4 0.00 0.00 0.00 57 1019.0
20260903170207 58 266 13.9 18.2 0.00 0.00 0.00 57 1019.3
20260903165707 58 269 13.9 18.2 0.00 0.00 0.00 57 1019.1
20260903165207 58 268 13.9 17.4 0.00 0.00 0.00 56 1019.0
20260903164207 59 267 12.2 17.4 0.00 0.00 0.00 56 1019.4
20260903163707 58 266 13.9 20.9 0.00 0.00 0.00 56 1019.2
20260903163206 58 267 14.8 20.0 0.00 0.00 0.00 56 1019.1
20260903162707 58 258 13.9 17.4 0.00 0.00 0.00 56 1019.0
20260903162207 58 263 12.2 17.4 0.00 0.00 0.00 56 1019.3
20260903161707 58 268 12.2 18.2 0.00 0.00 0.00 56 1019.3
20260903161207 58 275 12.2 18.2 0.00 0.00 0.00 56 1019.3
20260903160707 58 278 12.2 17.4 0.00 0.00 0.00 57 1019.4
20260903160207 58 276 12.2 17.4 0.00 0.00 0.00 57 1019.4
20260903155707 58 281 8.7 13.9 0.00 0.00 0.00 56 1019.4
20260903154206 58 283 11.3 13.9 0.00 0.00 0.00 56 1019.9
20260903153706 58 279 6.1 14.8 0.00 0.00 0.00 55 1019.9
20260903153207 58 281 10.4 17.4 0.00 0.00 0.00 56 1019.9
20260903152706 58 278 14.8 17.4 0.00 0.00 0.00 56 1019.5
20260903152207 58 279 11.3 17.4 0.00 0.00 0.00 56 1019.7
20260903151707 58 286 10.4 13.0 0.00 0.00 0.00 56 1020.1
20260903151207 58 285 7.8 12.2 0.00 0.00 0.00 56 1020.1
20260903150207 58 288 10.4 12.2 0.00 0.00 0.00 56 1019.9
20260903145707 59 292 8.7 11.3 0.00 0.00 0.00 56 1020.0
20260903144706 59 286 10.4 13.9 0.00 0.00 0.00 55 1020.1
20260903144207 59 289 9.6 12.2 0.00 0.00 0.00 55 1020.0
20260903143707 59 282 7.8 10.4 0.00 0.00 0.00 55 1020.0
20260903143206 59 289 7.8 10.4 0.00 0.00 0.00 54 1020.0
20260903142706 59 293 7.8 11.3 0.00 0.00 0.00 54 1019.9
20260903142207 59 307 7.8 11.3 0.00 0.00 0.00 54 1020.1
20260903141706 60 299 5.2 7.8 0.00 0.00 0.00 54 1019.9
20260903141207 60 311 6.1 12.2 0.00 0.00 0.00 53 1019.9
20260903140706 60 294 9.6 13.0 0.00 0.00 0.00 53 1019.8
20260903140206 60 291 6.1 11.3 0.00 0.00 0.00 53 1020.1
20260903135707 60 288 6.1 11.3 0.00 0.00 0.00 53 1020.2
20260903135207 60 285 10.4 13.9 0.00 0.00 0.00 53 1019.7
20260903134707 60 281 11.3 14.8 0.00 0.00 0.00 52 1019.9
20260903134207 60 279 10.4 14.8 0.00 0.00 0.00 52 1019.8
20260903133207 61 291 8.7 11.3 0.00 0.00 0.00 52 1019.8
20260903132706 61 287 6.1 8.7 0.00 0.00 0.00 51 1019.8
20260903132206 61 286 5.2 7.8 0.00 0.00 0.00 51 1020.1
20260903131706 61 267 6.1 8.7 0.00 0.00 0.00 51 1019.8
20260903130207 61 259 6.1 10.4 0.00 0.00 0.00 51 1019.8
20260903125707 62 259 5.2 7.8 0.00 0.00 0.00 51 1019.7
20260903125206 62 265 5.2 8.7 0.00 0.00 0.00 51 1019.5
20260903124706 62 272 7.8 13.0 0.00 0.00 0.00 50 1019.6
20260903124207 62 269 7.8 13.9 0.00 0.00 0.00 50 1019.3
20260903123706 62 272 6.1 12.2 0.00 0.00 0.00 50 1019.4
20260903123207 62 245 6.1 10.4 0.00 0.00 0.00 50 1019.5
20260903122206 62 255 12.2 18.2 0.00 0.00 0.00 50 1019.3
20260903121707 62 254 15.6 24.3 0.00 0.00 0.00 50 1018.9
20260903121206 62 242 16.5 27.8 0.00 0.00 0.00 50 1018.9
20260903120714 63 254 22.6 31.3 0.00 0.00 0.00 49 1018.6
20260903120206 62 257 18.2 26.9 0.00 0.00 0.00 50 1018.6
20260903115706 63 256 15.6 22.6 0.00 0.00 0.00 50 1018.6
20260903114706 63 248 19.1 24.3 0.00 0.00 0.00 50 1018.5
20260903114207 63 248 19.1 26.1 0.00 0.00 0.00 50 1018.3
20260903113207 63 246 19.1 27.8 0.00 0.00 0.00 49 1018.0
20260903112706 63 247 20.9 28.7 0.00 0.00 0.00 49 1017.9
20260903111706 64 240 17.4 20.9 0.00 0.00 0.00 49 1018.0
20260903111207 64 238 16.5 22.6 0.00 0.00 0.00 49 1018.0
20260903110706 64 245 19.1 22.6 0.00 0.00 0.00 48 1018.0
20260903110207 64 247 17.4 24.3 0.00 0.00 0.00 48 1017.7
20260903105706 64 248 16.5 25.2 0.00 0.00 0.00 48 1017.7
20260903105206 64 247 18.2 24.3 0.00 0.00 0.00 48 1017.5
20260903104706 64 244 17.4 22.6 0.00 0.00 0.00 47 1017.2
20260903104206 65 247 16.5 22.6 0.00 0.00 0.00 47 1017.2
20260903103706 65 244 14.8 21.7 0.00 0.00 0.00 47 1017.1
20260903103206 65 240 14.8 20.0 0.00 0.00 0.00 45 1017.3
20260903102206 65 229 6.1 12.2 0.00 0.00 0.00 42 1017.1
20260903101706 65 222 6.1 10.4 0.00 0.00 0.00 41 1017.0
20260903100707 66 233 8.7 15.6 0.00 0.00 0.00 40 1016.8
20260903100206 67 236 11.3 15.6 0.00 0.00 0.00 39 1016.4
20260903095706 67 228 9.6 13.9 0.00 0.00 0.00 37 1016.5
20260903095206 67 219 6.1 10.4 0.00 0.00 0.00 35 1016.4
20260903094706 68 215 6.1 11.3 0.00 0.00 0.00 35 1016.3
20260903094206 68 222 7.0 11.3 0.00 0.00 0.00 35 1016.3
20260903093706 68 234 6.1 10.4 0.00 0.00 0.00 35 1016.1
20260903093206 68 230 6.1 12.2 0.00 0.00 0.00 35 1016.0
20260903092706 68 241 10.4 14.8 0.00 0.00 0.00 34 1015.9
20260903092206 69 252 12.2 15.6 0.00 0.00 0.00 33 1015.5
20260903091706 69 250 11.3 17.4 0.00 0.00 0.00 33 1015.4
20260903091205 69 251 13.0 17.4 0.00 0.00 0.00 33 1015.1
20260903090706 69 256 13.0 14.8 0.00 0.00 0.00 33 1015.0
20260903090207 70 253 13.9 15.6 0.00 0.00 0.00 33 1014.8
20260903085706 70 249 10.4 14.8 0.00 0.00 0.00 33 1014.9
20260903085206 70 233 7.8 12.2 0.00 0.00 0.00 33 1015.0
20260903084206 71 225 6.1 10.4 0.00 0.00 0.00 32 1015.0
20260903083706 71 235 6.1 10.4 0.00 0.00 0.00 33 1014.7
20260903082206 72 266 8.7 11.3 0.00 0.00 0.00 29 1014.4
20260903081706 72 270 9.6 11.3 0.00 0.00 0.00 29 1014.0
20260903081206 72 269 8.7 12.2 0.00 0.00 0.00 28 1014.2
20260903080706 72 268 8.7 11.3 0.00 0.00 0.00 28 1014.1
20260903080206 72 265 9.6 14.8 0.00 0.00 0.00 28 1014.1
20260903075706 73 253 9.6 15.6 0.00 0.00 0.00 28 1014.0
20260903074706 73 260 10.4 17.4 0.00 0.00 0.00 27 1013.6
20260903074205 73 258 13.0 19.1 0.00 0.00 0.00 27 1013.3
20260903073706 74 268 15.6 22.6 0.00 0.00 0.00 27 1013.3
20260903073206 74 259 14.8 20.0 0.00 0.00 0.00 27 1013.2
20260903072706 74 264 16.5 22.6 0.00 0.00 0.00 27 1013.1
20260903071706 75 272 14.8 20.9 0.00 0.00 0.00 26 1012.8
20260903071206 75 266 13.9 19.1 0.00 0.00 0.00 26 1012.8
20260903070706 75 273 17.4 22.6 0.00 0.00 0.00 25 1012.7
20260903070206 76 270 12.2 20.9 0.00 0.00 0.00 25 1012.8
20260903065705 76 267 13.9 21.7 0.00 0.00 0.00 26 1012.6
20260903065206 76 260 14.8 20.9 0.00 0.00 0.00 25 1012.4
20260903064706 76 265 9.6 18.2 0.00 0.00 0.00 25 1012.4
20260903064206 77 265 13.9 17.4 0.00 0.00 0.00 25 1012.3
20260903063706 77 243 9.6 18.2 0.00 0.00 0.00 25 1012.3
20260903063205 77 280 8.7 13.0 0.00 0.00 0.00 26 1012.1
20260903062705 77 260 8.7 13.0 0.00 0.00 0.00 26 1011.9
20260903062205 77 261 13.0 20.0 0.00 0.00 0.00 24 1011.9
20260903061705 77 269 11.3 17.4 0.00 0.00 0.00 24 1011.6
20260903061205 77 272 11.3 21.7 0.00 0.00 0.00 24 1011.7
20260903060706 77 263 12.2 20.0 0.00 0.00 0.00 24 1011.6
20260903060206 77 246 13.0 20.0 0.00 0.00 0.00 24 1011.6
20260903055706 77 263 16.5 24.3 0.00 0.00 0.00 24 1011.5
20260903055206 77 274 17.4 22.6 0.00 0.00 0.00 24 1011.4
20260903054706 77 257 18.2 24.3 0.00 0.00 0.00 24 1011.3
20260903054205 77 269 16.5 22.6 0.00 0.00 0.00 24 1011.1
20260903053706 77 259 16.5 22.6 0.00 0.00 0.00 24 1011.3
20260903053205 77 271 15.6 25.2 0.00 0.00 0.00 24 1010.9
20260903052706 77 261 18.2 25.2 0.00 0.00 0.00 25 1010.9
20260903052206 77 262 13.9 26.9 0.00 0.00 0.00 24 1011.0
20260903051205 77 275 14.8 22.6 0.00 0.00 0.00 25 1010.9
20260903050705 77 278 17.4 28.7 0.00 0.00 0.00 25 1011.0
20260903050205 77 277 17.4 22.6 0.00 0.00 0.00 25 1010.9
20260903045706 77 280 14.8 20.9 0.00 0.00 0.00 27 1010.8
20260903045206 78 254 13.9 22.6 0.00 0.00 0.00 27 1011.0
20260903044706 78 261 15.6 21.7 0.00 0.00 0.00 26 1011.1
20260903044206 78 260 17.4 22.6 0.00 0.00 0.00 25 1010.8
20260903043706 78 255 14.8 22.6 0.00 0.00 0.00 25 1010.8
20260903042205 78 257 14.8 21.7 0.00 0.00 0.00 25 1010.6
20260903041705 77 256 13.0 21.7 0.00 0.00 0.00 25 1010.5
20260903041206 77 266 16.5 26.1 0.00 0.00 0.00 25 1010.5
20260903040205 77 268 15.6 26.1 0.00 0.00 0.00 25 1010.2
20260903035706 77 281 15.6 22.6 0.00 0.00 0.00 25 1010.3
20260903035206 77 263 19.1 28.7 0.00 0.00 0.00 26 1010.3
20260903034706 77 271 18.2 26.9 0.00 0.00 0.00 27 1010.2
20260903034205 77 281 15.6 22.6 0.00 0.00 0.00 28 1010.1
20260903033705 77 274 19.1 24.3 0.00 0.00 0.00 28 1010.0
20260903033205 78 263 20.9 27.8 0.00 0.00 0.00 27 1010.1